[[{"header":{"parameterUnit":"m.s-1","parameterCategory":1,"la1":30.2991,"la2":30.254,"lo1":-89.0895,"lo2":-89.0444,"dy":0.0017,"dx":0.0017,"nx":28,"ny":28,"refTime":"2024-05-15T09:00:00:Z","depth":0,"parameterNumber":2,"parameterNumberName":"U-component_of_WINDS"},"data":[0,0,0,0,0,0,0,0,0,0,0,0,0,0,0,0,0,0,0,0,0,0,0,0,0,0,0,0,0,0,0,0,0,0,0,0,0,0,0,0,0,0,0,0,0,0,0,0,0,0,0,0,0,0,0,0,0,0,-2.5478,-2.5479,0,-2.5517,-2.5518,-2.5518,-2.5485,-2.5483,-2.5482,-2.5481,-2.5521,-2.5523,-2.5525,0,0,0,0,0,0,0,0,0,0,0,0,0,-2.5376,-2.5378,-2.5478,-2.5479,-2.5479,-2.5517,-2.5518,-2.5518,-2.5485,-2.5483,-2.5482,-2.548,-2.552,-2.5523,-2.5525,0,0,0,0,0,0,0,0,0,0,0,0,0,-2.5418,-2.5379,-2.5478,-2.5467,-2.5467,-2.5517,-2.5518,-2.5518,-2.5485,-2.5483,-2.5481,-2.5479,-2.5519,-2.5522,-2.5526,-2.5589,0,0,-2.5536,-2.5538,0,0,0,0,0,0,0,0,-2.5416,-2.5422,-2.5468,-2.5468,-2.5468,-2.5494,-2.5496,-2.5542,-2.5486,-2.5478,-2.5481,-2.5478,-2.5513,-2.5517,-2.5529,-2.5591,-2.5592,-2.5537,-2.5539,-2.554,-2.5541,0,0,0,0,0,0,0,-2.5413,-2.542,-2.5494,-2.5469,-2.5469,-2.5461,-2.5464,-2.5505,-2.5507,-2.5479,-2.5476,-2.5482,-2.5513,-2.5526,-2.553,-2.5593,-2.5537,-2.554,-2.5542,-2.5543,-2.5709,-2.5711,0,0,0,0,0,0,-2.5411,-2.5418,-2.5493,-2.5495,-2.5436,-2.5464,-2.5468,-2.5488,-2.5506,-2.5507,-2.5483,-2.548,-2.5521,-2.5526,-2.5531,-2.5606,-2.554,-2.5544,-2.5546,-2.5706,-2.5709,-2.5712,0,0,0,0,0,0,-2.5409,-2.5418,-2.5491,-2.5456,-2.5465,-2.5468,-2.549,-2.549,-2.5502,-2.551,-2.551,-2.5496,-2.5519,-2.5526,-2.5575,-2.5607,-2.5545,-2.5548,-2.5704,-2.5707,-2.571,-2.5757,0,0,0,0,0,0,-2.5406,-2.5418,-2.5442,-2.5457,-2.5467,-2.5534,-2.5492,-2.5492,-2.5509,-2.5504,-2.5522,-2.5523,-2.5518,-2.557,-2.5578,-2.5611,-2.5551,-2.5701,-2.5705,-2.5709,-2.5752,-2.5761,-2.5769,0,0,0,0,0,-2.5403,-2.5453,-2.5443,-2.5452,-2.5496,-2.5536,-2.5542,-2.5535,-2.5511,-2.5535,-2.554,-2.5522,-2.5602,-2.5575,-2.5584,-2.5618,-2.5699,-2.5704,-2.5709,-2.5748,-2.5759,-2.5769,0,0,0,0,0,0,-2.5442,-2.5455,-2.5444,-2.55,-2.5517,-2.553,-2.556,-2.5547,-2.5571,-2.5566,-2.5558,-2.5562,-2.5613,-2.5621,-2.559,-2.568,-2.5647,-2.5654,-2.5673,-2.5684,-2.5692,-2.5689,-2.5554,0,0,0,0,0,-2.5457,-2.5488,-2.5498,-2.5547,-2.5556,-2.5557,-2.5574,-2.5567,-2.5585,-2.5592,-2.56,-2.5617,-2.5646,-2.5666,-2.5693,-2.5753,-2.5757,-2.5782,-2.579,-2.5797,-2.5803,-2.5835,-2.5846,-2.5728,-2.5728,-2.5728,0,0,-2.5488,-2.5499,-2.5519,-2.5555,-2.5567,-2.5599,-2.5563,-2.5599,-2.5622,-2.5597,-2.5643,-2.565,-2.5669,-2.5724,-2.5749,-2.5732,-2.5836,-2.5803,-2.5809,-2.5811,-2.5842,-2.5853,-2.5863,-2.5732,-2.5731,-2.5731,0,0,-2.5562,-2.5574,-2.5616,-2.5629,-2.5648,-2.5649,-2.5659,-2.5674,-2.5678,-2.5724,-2.5706,-2.5734,-2.5784,-2.5799,-2.5813,-2.5893,-2.5877,-2.5902,-2.5945,-2.5977,-2.5986,-2.5994,-2.6023,-2.6033,-2.5908,-2.5908,-2.5908,0,-2.5599,-2.5647,-2.5639,-2.5676,-2.5692,-2.5671,-2.5713,-2.5727,-2.5754,-2.5766,-2.5747,-2.5809,-2.5821,-2.5879,-2.5898,-2.591,-2.5921,-2.5899,-2.5985,-2.5994,-2.6001,-2.6028,-2.6039,-2.5911,-2.5911,-2.591,-2.591,0,-2.5691,-2.5724,-2.5756,-2.5783,-2.5802,-2.5842,-2.5841,-2.5862,-2.5854,-2.5857,-2.5904,-2.5917,-2.5947,-2.596,-2.5953,-2.6017,-2.6006,-2.5987,-2.5952,-2.6015,-2.604,-2.6051,-2.5915,-2.5914,-2.5913,-2.5912,0,0,-2.579,-2.5812,-2.5824,-2.5836,-2.5856,-2.5881,-2.592,-2.5949,-2.5967,-2.5987,-2.6019,-2.6062,-2.6044,-2.606,-2.6054,-2.6083,-2.6145,-2.6059,-2.606,-2.6074,-2.6216,-2.6231,-2.6243,-2.6135,-2.6137,-2.6138,-2.6215,0,-2.5864,-2.5931,-2.5926,-2.599,-2.602,-2.6001,-2.6035,-2.6051,-2.6054,-2.6081,-2.6085,-2.6116,-2.609,-2.6099,-2.6126,-2.6132,-2.6173,-2.6126,-2.6165,-2.6166,-2.616,-2.6256,-2.6271,-2.6342,-2.6224,-2.6226,-2.6227,0,-2.596,-2.5983,-2.605,-2.6065,-2.6078,-2.6108,-2.6134,-2.616,-2.6178,-2.6178,-2.6196,-2.6186,-2.6225,-2.6191,-2.6245,-2.6213,-2.6229,-2.6234,-2.6236,-2.6239,-2.62,-2.6261,-2.6365,-2.6376,-2.6243,-2.6242,-2.624,0,-2.6025,-2.6073,-2.6119,-2.613,-2.6149,-2.617,-2.6179,-2.6195,-2.6213,-2.6236,-2.6247,-2.6274,-2.6289,-2.6311,-2.6308,-2.6283,-2.6363,-2.6328,-2.6365,-2.6365,-2.6382,-2.6381,-2.649,-2.6393,-2.6393,-2.6393,-2.6392,0,-2.6109,-2.615,-2.6148,-2.6176,-2.6222,-2.6216,-2.6262,-2.6268,-2.6283,-2.6312,-2.6297,-2.6325,-2.632,-2.6348,-2.6346,-2.6391,-2.6398,-2.64,-2.6399,-2.6401,-2.6401,-2.6411,-2.6405,-2.6395,-2.6395,-2.6394,-2.6394,0,-2.6189,-2.6189,-2.6238,-2.6252,-2.6257,-2.629,-2.6302,-2.6329,-2.6331,-2.6369,-2.6377,-2.6381,-2.6413,-2.6413,-2.645,-2.6449,-2.6504,-2.6497,-2.6498,-2.6496,-2.6532,-2.6529,-2.6651,-2.6667,-2.656,-2.6561,-2.6562,0,-2.6242,-2.6274,-2.6291,-2.6309,-2.632,-2.635,-2.6368,-2.6363,-2.6382,-2.6405,-2.6429,-2.646,-2.6484,-2.6536,-2.6543,-2.6571,-2.6565,-2.6605,-2.6569,-2.657,-2.6565,-2.6563,-2.6566,-2.6612,-2.6614,-2.6615,-2.6615,0,-2.6337,-2.6335,-2.6361,-2.6388,-2.641,-2.643,-2.6449,-2.6465,-2.6463,-2.6485,-2.6518,-2.6537,-2.6574,-2.6605,-2.6632,-2.6641,-2.6628,-2.6627,-2.6637,-2.6639,-2.6638,-2.6639,-2.6517,-2.6624,-2.6623,-2.6623,-2.6622,-2.6622,-2.6405,-2.6432,-2.6448,-2.6478,-2.6492,-2.651,-2.6536,-2.6541,-2.6568,-2.6598,-2.6594,-2.663,-2.6647,-2.6682,-2.6694,-2.6723,-2.6708,-2.6723,-2.6726,-2.673,-2.6734,-2.6634,-2.6728,-2.6727,-2.6727,-2.6727,-2.6727,0,-2.6498,-2.6508,-2.6535,-2.6562,-2.6586,-2.6571,-2.6591,-2.6612,-2.6644,-2.6661,-2.6686,-2.6723,-2.6753,-2.6762,-2.679,-2.6811,-2.6806,-2.6819,-2.6817,-2.682,-2.6745,-2.6734,-2.6823,-2.6823,-2.6823,-2.6823,-2.6823,-2.6823,-2.655,-2.6594,-2.6595,-2.6647,-2.6656,-2.6691,-2.6704,-2.6721,-2.6734,-2.6777,-2.6801,-2.6807,-2.6821,-2.685,-2.6877,-2.6879,-2.689,-2.6905,-2.6905,-2.6835,-2.6825,-2.6816,-2.6805,-2.6908,-2.6908,-2.6977,-2.6978,-2.6978]},{"header":{"parameterUnit":"m.s-1","parameterCategory":1,"la1":30.2991,"la2":30.254,"lo1":-89.0895,"lo2":-89.0444,"dy":0.0017,"dx":0.0017,"nx":28,"ny":28,"refTime":"2024-05-15T09:00:00:Z","depth":0,"parameterNumber":3,"parameterNumberName":"V-component_of_WINDS"},"data":[0,0,0,0,0,0,0,0,0,0,0,0,0,0,0,0,0,0,0,0,0,0,0,0,0,0,0,0,0,0,0,0,0,0,0,0,0,0,0,0,0,0,0,0,0,0,0,0,0,0,0,0,0,0,0,0,0,0,4.7919,4.7919,0,4.7961,4.7961,4.7962,4.7904,4.7902,4.79,4.7898,4.7939,4.7942,4.7944,0,0,0,0,0,0,0,0,0,0,0,0,0,4.7786,4.7788,4.7919,4.7919,4.792,4.7961,4.7961,4.7962,4.7905,4.7902,4.79,4.7898,4.7938,4.7941,4.7945,0,0,0,0,0,0,0,0,0,0,0,0,0,4.7837,4.7789,4.7918,4.7896,4.7895,4.7961,4.7961,4.7962,4.7905,4.7902,4.7899,4.7896,4.7936,4.7941,4.7945,4.8034,0,0,4.7959,4.7961,0,0,0,0,0,0,0,0,4.7834,4.7842,4.7899,4.7898,4.7896,4.7924,4.7929,4.7986,4.7906,4.7901,4.7898,4.7895,4.7936,4.794,4.7955,4.8036,4.8038,4.7959,4.7962,4.7964,4.7965,0,0,0,0,0,0,0,4.7831,4.784,4.7935,4.79,4.7898,4.7883,4.7887,4.794,4.7935,4.7901,4.7897,4.7903,4.7935,4.7951,4.7956,4.8038,4.7959,4.7963,4.7966,4.7968,4.8195,4.8198,0,0,0,0,0,0,4.783,4.7837,4.7934,4.7936,4.7857,4.7888,4.7892,4.7918,4.7935,4.7934,4.7906,4.79,4.7945,4.795,4.7957,4.8062,4.7964,4.7968,4.7971,4.8192,4.8196,4.8199,0,0,0,0,0,0,4.7828,4.7839,4.7932,4.7886,4.7897,4.7894,4.7923,4.7921,4.7937,4.7938,4.7937,4.7923,4.7943,4.795,4.8016,4.8063,4.797,4.7974,4.8188,4.8193,4.8198,4.8275,0,0,0,0,0,0,4.7824,4.7839,4.7873,4.7887,4.7899,4.7992,4.7926,4.7924,4.7945,4.7938,4.7954,4.7954,4.7941,4.8009,4.802,4.8067,4.7978,4.8184,4.819,4.8196,4.8268,4.8282,4.8293,0,0,0,0,0,4.782,4.7892,4.7875,4.7887,4.7942,4.7994,4.8001,4.7986,4.7949,4.7983,4.7984,4.7953,4.8056,4.8017,4.8028,4.8078,4.818,4.8188,4.8196,4.8262,4.8279,4.8293,0,0,0,0,0,0,4.7883,4.7894,4.7875,4.7955,4.7974,4.7985,4.8027,4.8004,4.8033,4.8026,4.8005,4.8009,4.8079,4.8084,4.804,4.8165,4.8112,4.8122,4.8159,4.8175,4.8187,4.8184,4.7981,0,0,0,0,0,4.7906,4.7949,4.7955,4.8025,4.8036,4.803,4.8052,4.8039,4.8058,4.8065,4.8071,4.809,4.8126,4.8151,4.8184,4.8268,4.8271,4.8308,4.8321,4.8331,4.8341,4.8386,4.8403,4.8224,4.8224,4.8224,0,0,4.7955,4.7966,4.7994,4.8038,4.8052,4.8095,4.8037,4.8086,4.8118,4.8072,4.8135,4.814,4.8159,4.8234,4.8268,4.8241,4.839,4.8341,4.8349,4.8353,4.8395,4.8412,4.8427,4.8229,4.8229,4.8228,0,0,4.8065,4.8078,4.8138,4.8153,4.8175,4.8171,4.8185,4.82,4.8201,4.8264,4.8231,4.8268,4.8332,4.8347,4.8363,4.8481,4.8454,4.8492,4.8559,4.8604,4.8618,4.863,4.8673,4.8688,4.8501,4.8502,4.8502,0,4.8122,4.8188,4.8171,4.8223,4.8243,4.8205,4.8265,4.828,4.8312,4.8326,4.8297,4.8376,4.8386,4.8465,4.8494,4.8508,4.8524,4.8491,4.8618,4.863,4.8641,4.8681,4.8697,4.8506,4.8506,4.8505,4.8505,0,4.8257,4.8303,4.8348,4.8382,4.8407,4.8462,4.8453,4.8481,4.8466,4.8465,4.8529,4.854,4.8576,4.8593,4.8578,4.867,4.8653,4.8621,4.8568,4.8663,4.87,4.8715,4.8513,4.8511,4.851,4.8509,0,0,4.8408,4.8432,4.8449,4.8464,4.8486,4.852,4.8574,4.861,4.8634,4.8657,4.8701,4.8757,4.8727,4.8746,4.8732,4.8771,4.8864,4.8734,4.8734,4.8758,4.8967,4.8991,4.9009,4.8846,4.8849,4.8851,4.8965,0,4.852,4.8614,4.8601,4.8691,4.8733,4.8698,4.8745,4.8763,4.8763,4.8798,4.8798,4.8838,4.8796,4.8807,4.8844,4.8845,4.8906,4.8836,4.8886,4.8889,4.8883,4.9029,4.9055,4.9162,4.8979,4.8982,4.8984,0,4.8662,4.8692,4.8786,4.8802,4.8819,4.8862,4.8894,4.8928,4.8948,4.8945,4.8967,4.8946,4.8999,4.8945,4.9018,4.8971,4.8991,4.8994,4.8998,4.9002,4.8942,4.9037,4.9195,4.9212,4.9006,4.9005,4.9003,0,4.8763,4.8827,4.8892,4.8906,4.8926,4.8956,4.8966,4.8983,4.9005,4.9033,4.9048,4.9081,4.91,4.9126,4.9114,4.9076,4.9189,4.9134,4.9188,4.9189,4.9214,4.9213,4.9378,4.9226,4.9226,4.9226,4.9225,0,4.8889,4.8949,4.8938,4.8978,4.9044,4.9028,4.9093,4.9098,4.9113,4.9153,4.9124,4.9162,4.9145,4.9182,4.9173,4.9235,4.9243,4.9242,4.9239,4.9245,4.9245,4.9258,4.925,4.923,4.9229,4.9228,4.9227,0,4.9014,4.9009,4.9078,4.9092,4.9097,4.9145,4.9156,4.9193,4.9191,4.9243,4.9253,4.9251,4.9293,4.9284,4.9329,4.9323,4.9401,4.9389,4.9395,4.9392,4.9447,4.9443,4.9627,4.965,4.9483,4.9485,4.9486,0,4.9094,4.914,4.9159,4.9184,4.9197,4.9238,4.9261,4.9247,4.9272,4.9299,4.9333,4.9372,4.9403,4.9471,4.9473,4.9507,4.9496,4.9558,4.9501,4.9505,4.9497,4.9495,4.9499,4.9569,4.9571,4.9573,4.9574,0,4.9238,4.9234,4.927,4.9306,4.9335,4.9361,4.9385,4.9407,4.9395,4.9425,4.9468,4.9492,4.9539,4.9579,4.9611,4.962,4.9595,4.9592,4.9607,4.9613,4.9615,4.9615,4.9427,4.9588,4.9587,4.9586,4.9585,4.9584,4.9344,4.9383,4.9403,4.9444,4.946,4.9484,4.952,4.9523,4.9559,4.9597,4.9586,4.9635,4.9654,4.9695,4.9708,4.9745,4.9722,4.9743,4.9748,4.9753,4.9761,4.9609,4.9751,4.975,4.975,4.975,4.9749,0,4.9487,4.9498,4.9536,4.9571,4.9603,4.9578,4.9604,4.9632,4.9676,4.9696,4.9727,4.9776,4.9815,4.982,4.9856,4.9885,4.9875,4.9895,4.9893,4.9895,4.9779,4.9763,4.9903,4.9903,4.9903,4.9903,4.9903,4.9903,4.9565,4.963,4.9628,4.9701,4.9711,4.976,4.9777,4.9798,4.9814,4.9871,4.9903,4.9906,4.992,4.9957,4.9991,4.9991,5.0006,5.0031,5.0027,4.9919,4.9903,4.9889,4.9874,5.0034,5.0034,5.014,5.0141,5.0142]}]]